Home > Time Zones > World Clock > Weather > Spain > Palma > Past weeks

Flag for Spain Weather past 2 weeks in Palma, Majorca, Spain

Now
64 °F

Passing clouds.


Feels Like: 64 °F
Forecast: 53 / 68 °F
Wind: 13 mph from Southwest

Location: Palma De Mallorca / Son San Juan

Current Time: Apr 18, 2015 at 6:56:58 PM

Latest Report: Apr 18, 2015 at 6:00 PM


Visibility: N/A

Pressure: 29.92 "Hg

Humidity: 78%

Dew point: 57 °F

Location of PalmaLocation

Historic Weather in Palma — Graph

°F

Palma temperature yesterday

Maximum temperature yesterday: 70 °F (at 3:00 PM)
Minimum temperature yesterday: 48 °F (at 7:00 AM)
Average temperature yesterday: 62 °F

Past Weeks' High & Low Weather Summary

 TemperatureHumidityPressure
High77 °F (Apr 14, 2:00 PM)100% (Apr 4, 8:00 AM)30.45 "Hg (Apr 4, 8:00 AM)
Low36 °F (Apr 8, 5:00 AM)25% (Apr 7, 6:30 PM)29.86 "Hg (Apr 5, 5:30 AM)
Average58 °F73%30.17 "Hg
* Reported Apr 3 6:00 PM — Apr 18 6:00 PM, Palma, Weather by CustomWeather, © 2015

Note: Actual official high and low records may vary slightly from our data, if they occured in-between our weather recording intervals... More about our weather records

Advertising

Palma weather history for previous 24 hours

 ConditionsComfort  
Time TempWeatherWind HumidityBarometerVisibility
6:00 PM
Sat, Apr 18
64 °FPassing clouds.13 mph78%29.92 "HgN/A
5:30 PM64 °FPassing clouds.10 mph83%29.92 "HgN/A
5:00 PM64 °FPassing clouds.13 mph78%29.95 "HgN/A
4:30 PM64 °FPassing clouds.13 mph78%29.95 "HgN/A
4:00 PM64 °FPassing clouds.16 mph78%29.95 "HgN/A
3:30 PM64 °FPassing clouds.16 mph78%29.95 "HgN/A
3:00 PM66 °FPassing clouds.16 mph73%29.98 "HgN/A
2:30 PM66 °FPassing clouds.14 mph73%29.98 "HgN/A
2:00 PM66 °FPassing clouds.14 mph73%29.98 "HgN/A
1:30 PM70 °FSunny.12 mph64%29.98 "Hg10 mi
1:00 PM72 °FSunny.10 mph57%29.98 "Hg10 mi
12:30 PM73 °FPassing clouds.7 mph50%29.98 "HgN/A
12:00 PM72 °FSunny.3 mph50%29.98 "Hg10 mi
11:30 AM72 °FPassing clouds.5 mph47%29.98 "HgN/A
11:00 AM68 °FSunny.1 mph60%29.98 "Hg10 mi
10:30 AM66 °FSunny.No wind68%30.01 "Hg10 mi
10:00 AM61 °FPassing clouds.1 mph88%30.01 "HgN/A
9:30 AM57 °FPassing clouds.1 mph100%30.01 "HgN/A
9:00 AM55 °FLight fog.3 mph100%30.01 "HgN/A
8:30 AM55 °FFog.No wind94%30.01 "HgN/A
8:00 AM52 °FFog.2 mph100%30.01 "HgN/A
7:30 AM52 °FPassing clouds.3 mph100%30.01 "Hg0 mi
7:00 AM52 °FCool.3 mph100%30.01 "Hg3 mi
6:30 AM52 °FLight fog.1 mph100%30.01 "Hg4 mi
6:00 AM52 °FFog.3 mph100%30.01 "Hg3 mi
5:30 AM54 °FPassing clouds.3 mph94%30.01 "Hg6 mi
4:30 AM55 °FPassing clouds.2 mph94%30.01 "HgN/A
4:00 AM55 °FPassing clouds.3 mph94%30.01 "HgN/A
3:30 AM54 °FPassing clouds.3 mph94%30.01 "HgN/A
3:00 AM54 °FPassing clouds.5 mph94%30.04 "HgN/A
2:30 AM52 °FPassing clouds.6 mph94%30.04 "HgN/A
2:00 AM52 °FPassing clouds.3 mph94%30.04 "HgN/A
1:30 AM52 °FPassing clouds.3 mph94%30.04 "HgN/A
1:00 AM52 °FPassing clouds.No wind94%30.07 "HgN/A
12:30 AM54 °FPassing clouds.2 mph88%30.07 "HgN/A
12:00 AM54 °FPassing clouds.1 mph88%30.07 "HgN/A
11:30 PM
Fri, Apr 17
55 °FPassing clouds.1 mph88%30.07 "HgN/A
11:00 PM57 °FPassing clouds.2 mph94%30.07 "HgN/A
10:30 PM59 °FPassing clouds.1 mph88%30.07 "HgN/A
10:00 PM61 °FPassing clouds.2 mph77%30.07 "HgN/A
9:30 PM61 °FPassing clouds.No wind77%30.04 "HgN/A
9:00 PM63 °FPassing clouds.No wind73%30.04 "HgN/A
8:30 PM64 °FPassing clouds.No wind68%30.04 "HgN/A
8:00 PM66 °FPassing clouds.1 mph60%30.01 "HgN/A
7:30 PM66 °FPassing clouds.5 mph68%30.04 "HgN/A
7:00 PM66 °FPassing clouds.6 mph73%30.04 "HgN/A
6:30 PM68 °FPassing clouds.8 mph64%30.01 "HgN/A
6:00 PM70 °FPassing clouds.12 mph64%30.04 "HgN/A
Weather by CustomWeather, © 2015

See weather overviewHow to use our weather pages